Location: Most
(50.5330°N, 13.6500°E)
Time: 04:35:07
(UTC+02:00)

ISS - Pass Details

Date: 22 May 2021
Orbit: 417 x 422 km, 51.6° (Epoch: 13 June)

Event Time Altitude Azimuth Distance (km) Brightness Sun altitude
Rises 01:21:20 0° 285° (WNW) 2,371 0.2 -19.0°
Reaches altitude 10° 01:23:37 10° 273° (W) 1,505 -1.0 -18.9°
Enters shadow 01:24:07 13° 268° (W) 1,328 -1.3 -18.9°
